Date_and_time,latitude,longitude,wind_speed,RelWindDirFrom,WindDirFrom,air_pressure,air_temperature,relative_humidity,Temp,platform_speed_wrt_ground,air_pressure_at_mean_sea_level,platform_orientation
2019-08-24 00:00,50.630445,-96.9807666666667,13.3,15.2,139,991.00,21.9,55,20.45,0.0,1016.82,90.0
2019-08-24 00:10,50.6304483333333,-96.9807766666667,12.9,14.9,139,990.92,21.8,55,20.45,0.0,1016.75,90.0
2019-08-24 00:20,50.63045,-96.9807766666667,12.4,14.7,142,990.90,21.8,56,20.46,0.0,1016.74,90.0
2019-08-24 00:30,50.6304516666667,-96.9807783333333,11.9,14.4,142,990.95,21.5,59,20.49,0.0,1016.79,90.0
2019-08-24 00:40,50.63045,-96.98078,10.5,13.0,150,991.00,21.5,59,20.49,0.0,1016.84,90.0
2019-08-24 00:50,50.63045,-96.9807816666667,9.2,11.4,159,991.02,21.2,65,20.48,0.0,1016.89,90.0
2019-08-24 01:00,50.6304516666667,-96.9807833333333,8.6,10.7,160,991.00,21.0,66,20.48,0.0,1016.87,36.6
2019-08-24 01:10,50.6304516666667,-96.9807833333333,9.1,11.7,150,990.87,21.0,66,20.47,0.0,1016.76,36.6
2019-08-24 01:20,50.6304666666667,-96.9807866666667,10.8,12.7,139,990.73,21.0,65,20.47,0.0,1016.61,36.6
2019-08-24 01:30,50.63046,-96.98078,12.5,14.2,140,990.63,21.0,63,20.48,0.0,1016.52,36.6
2019-08-24 01:40,50.6304566666667,-96.9807783333333,13.5,15.5,144,990.67,21.1,61,20.52,0.0,1016.55,36.6
2019-08-24 01:50,50.630455,-96.9807783333333,14.8,16.9,145,990.68,21.3,58,20.56,0.0,1016.55,36.6
2019-08-24 02:00,50.6304466666667,-96.9807883333333,14.6,17.1,140,990.46,21.2,60,20.58,0.0,1016.34,38.0
2019-08-24 02:10,50.6304483333333,-96.98079,13.9,17.9,134,990.43,21.2,61,20.58,0.0,1016.31,38.0
2019-08-24 02:20,50.63045,-96.98078,14.4,18.3,136,990.44,21.1,60,20.58,0.0,1016.33,38.0
2019-08-24 02:30,50.63045,-96.9807816666667,13.4,16.3,138,990.53,21.1,60,20.56,0.0,1016.42,38.0
2019-08-24 02:40,50.63045,-96.9807783333333,14.1,18.5,139,990.46,21.1,59,20.55,0.0,1016.37,38.0
2019-08-24 02:50,50.63045,-96.9807783333333,13.4,16.3,142,990.58,20.8,63,20.55,0.0,1016.51,38.0
2019-08-24 03:00,50.6304516666667,-96.9807783333333,13.0,15.8,139,990.63,20.6,63,20.54,0.0,1016.57,317.2
2019-08-24 03:10,50.6304466666667,-96.9807666666667,12.6,16.3,129,990.53,21.0,62,20.54,0.0,1016.45,317.2
2019-08-24 03:20,50.63046,-96.98077,13.2,16.8,130,990.54,20.9,61,20.54,0.0,1016.47,317.2
2019-08-24 03:30,50.6304616666667,-96.9807766666667,13.7,17.9,128,990.46,20.8,62,20.52,0.0,1016.39,317.2
2019-08-24 03:40,50.6304616666667,-96.9807766666667,13.5,17.0,136,990.55,20.2,62,20.52,0.0,1016.50,317.2
2019-08-24 03:50,50.63046,-96.980775,14.3,17.4,140,990.43,20.0,64,20.52,0.0,1016.38,317.2
2019-08-24 04:00,50.6304566666667,-96.9807766666667,15.1,17.6,143,990.29,19.9,65,20.52,0.0,1016.25,90.0
2019-08-24 04:10,50.630455,-96.9807766666667,14.6,17.6,148,990.37,20.1,63,20.51,0.0,1016.32,90.0
2019-08-24 04:20,50.630445,-96.980785,15.3,21.1,149,990.39,20.1,62,20.51,0.0,1016.34,90.0
2019-08-24 04:30,50.63045,-96.980775,16.5,19.9,147,990.31,20.1,62,20.50,0.0,1016.26,90.0
2019-08-24 04:40,50.63045,-96.98078,16.2,19.4,145,990.32,20.0,64,20.49,0.0,1016.29,90.0
2019-08-24 04:50,50.6304516666667,-96.9807833333333,16.5,20.7,146,990.34,20.0,63,20.49,0.0,1016.32,90.0
2019-08-24 05:00,50.6304516666667,-96.980785,18.3,21.7,145,990.16,20.0,63,20.49,0.0,1016.12,12.6
2019-08-24 05:10,50.6304516666667,-96.980785,18.6,22.4,147,990.11,19.9,63,20.48,0.0,1016.07,12.6
2019-08-24 05:20,50.63045,-96.980785,17.9,21.6,146,990.10,19.7,64,20.47,0.0,1016.08,12.6
2019-08-24 05:30,50.63045,-96.9807866666667,17.2,21.2,147,990.06,19.6,66,20.47,0.0,1016.06,12.6
2019-08-24 05:40,50.63045,-96.9807866666667,16.6,20.2,150,990.08,19.6,66,20.46,0.0,1016.10,12.6
2019-08-24 05:50,50.63045,-96.9807866666667,15.7,19.0,149,990.06,19.5,67,20.48,0.0,1016.08,12.6
2019-08-24 06:00,50.6304516666667,-96.9807866666667,14.5,17.9,153,990.13,19.6,68,20.50,0.0,1016.15,270.0
2019-08-24 06:10,50.6304566666667,-96.9807633333333,14.3,19.0,158,990.13,19.6,68,20.50,0.0,1016.15,270.0
2019-08-24 06:20,50.6304533333333,-96.9807783333333,15.0,18.5,161,990.16,19.6,67,20.49,0.0,1016.17,270.0
2019-08-24 06:30,50.6304533333333,-96.98078,13.5,18.0,159,990.11,19.6,69,20.48,0.0,1016.13,270.0
2019-08-24 06:40,50.6304566666667,-96.980785,13.8,17.7,160,990.00,19.6,68,20.48,0.0,1016.02,270.0
2019-08-24 06:50,50.6304533333333,-96.98078,14.6,18.5,161,989.88,19.5,67,20.48,0.0,1015.90,270.0
2019-08-24 07:00,50.630415,-96.9807766666667,15.8,19.4,163,989.77,19.5,67,20.47,0.0,1015.79,360.0
2019-08-24 07:10,50.63045,-96.98078,16.6,19.7,162,989.76,19.4,66,20.46,0.0,1015.78,360.0
2019-08-24 07:20,50.6304566666667,-96.9807783333333,16.0,18.8,162,989.68,19.4,66,20.45,0.0,1015.71,360.0
2019-08-24 07:30,50.6304533333333,-96.9807916666667,14.5,17.8,160,989.57,19.3,69,20.43,0.0,1015.61,360.0
2019-08-24 07:40,50.6304533333333,-96.9807833333333,14.5,17.4,162,989.60,19.3,70,20.41,0.0,1015.64,360.0
2019-08-24 07:50,50.630455,-96.980785,14.1,17.0,163,989.57,19.2,70,20.41,0.0,1015.61,360.0
2019-08-24 08:00,50.6304283333333,-96.9807683333333,13.9,17.8,161,989.54,19.2,70,20.40,0.0,1015.58,171.6
2019-08-24 08:10,50.6304516666667,-96.98078,15.0,19.3,162,989.57,19.3,67,20.39,0.0,1015.60,171.6
2019-08-24 08:20,50.630455,-96.980775,15.7,19.4,163,989.56,19.4,64,20.37,0.0,1015.59,171.6
2019-08-24 08:30,50.63046,-96.9807716666667,15.3,18.8,163,989.51,19.4,65,20.37,0.0,1015.55,171.6
2019-08-24 08:40,50.6304516666667,-96.980795,15.2,18.5,166,989.42,19.4,64,20.37,0.0,1015.46,171.6
2019-08-24 08:50,50.6304533333333,-96.9807883333333,15.5,19.2,166,989.33,19.3,65,20.37,0.0,1015.36,171.6
2019-08-24 09:00,50.6304533333333,-96.9807866666667,16.3,20.3,165,989.17,19.2,65,20.37,0.0,1015.20,90.0
2019-08-24 09:10,50.6304466666667,-96.98079,16.5,20.1,165,989.14,19.1,65,20.37,0.0,1015.18,90.0
2019-08-24 09:20,50.63045,-96.98078,17.5,21.9,164,989.16,19.0,66,20.36,0.0,1015.21,90.0
2019-08-24 09:30,50.6304516666667,-96.9807816666667,17.8,21.1,163,989.10,18.9,67,20.36,0.0,1015.16,90.0
2019-08-24 09:40,50.63045,-96.9807833333333,17.7,21.5,163,988.98,18.8,67,20.36,0.0,1015.04,90.0
2019-08-24 09:50,50.6304483333333,-96.9807816666667,18.6,23.0,164,988.97,18.7,68,20.35,0.0,1015.03,90.0
2019-08-24 10:00,50.6304466666667,-96.9807766666667,18.1,22.2,164,988.96,18.6,68,20.33,0.0,1015.02,360.0
2019-08-24 10:10,50.630445,-96.980775,18.6,22.9,165,988.87,18.5,69,20.33,0.0,1014.93,360.0
2019-08-24 10:20,50.630445,-96.9807766666667,17.5,20.8,165,988.83,18.4,69,20.33,0.0,1014.90,360.0
2019-08-24 10:30,50.630445,-96.9807783333333,17.1,21.5,164,988.78,18.4,70,20.33,0.0,1014.85,360.0
2019-08-24 10:40,50.6304466666667,-96.98078,17.8,20.9,163,988.66,18.4,70,20.32,0.0,1014.73,360.0
2019-08-24 10:50,50.6304483333333,-96.9807866666667,17.5,21.9,164,988.66,18.4,71,20.32,0.0,1014.73,360.0
2019-08-24 11:00,50.6304466666667,-96.9807816666667,17.2,23.2,165,988.57,18.3,71,20.31,0.0,1014.65,332.6
2019-08-24 11:10,50.630445,-96.9807783333333,16.7,20.1,166,988.51,18.3,71,20.31,0.0,1014.59,332.6
2019-08-24 11:20,50.630445,-96.9807783333333,16.3,19.6,165,988.44,18.3,71,20.29,0.0,1014.52,332.6
2019-08-24 11:30,50.6304466666667,-96.9807783333333,17.1,20.8,164,988.43,18.4,71,20.26,0.0,1014.51,332.6
2019-08-24 11:40,50.6304766666667,-96.9807916666667,16.6,21.0,161,988.33,18.3,74,20.23,0.0,1014.41,332.6
2019-08-24 11:50,50.6304533333333,-96.9807616666667,15.6,20.3,158,988.27,18.2,76,20.20,0.0,1014.37,332.6
2019-08-24 12:00,50.630455,-96.9807733333333,16.6,21.1,154,988.14,18.1,77,20.18,0.0,1014.24,90.0
2019-08-24 12:10,50.6304566666667,-96.980775,17.0,23.8,155,988.02,18.1,77,20.18,0.0,1014.12,90.0
2019-08-24 12:20,50.6304533333333,-96.980775,19.2,24.3,158,988.06,18.2,77,20.17,0.0,1014.16,90.0
2019-08-24 12:30,50.630455,-96.9807733333333,19.3,24.4,158,988.07,18.2,78,20.15,0.0,1014.17,90.0
2019-08-24 12:40,50.6304566666667,-96.9807716666667,19.4,23.9,159,988.08,18.2,78,20.14,0.0,1014.18,90.0
2019-08-24 12:50,50.6304566666667,-96.9807716666667,19.5,24.8,160,988.25,18.2,78,20.14,0.0,1014.36,90.0
2019-08-24 13:00,50.6304566666667,-96.9807716666667,19.5,25.8,156,988.23,18.3,77,20.13,0.0,1014.33,38.0
2019-08-24 13:10,50.6304566666667,-96.9807716666667,19.7,24.6,152,988.25,18.3,78,20.12,0.0,1014.35,38.0
2019-08-24 13:20,50.6304566666667,-96.9807716666667,17.7,23.6,155,988.47,18.4,79,20.11,0.0,1014.57,38.0
2019-08-24 13:30,50.6304566666667,-96.9807733333333,18.4,23.1,151,988.19,18.4,79,20.11,0.0,1014.28,38.0
2019-08-24 13:40,50.630465,-96.9808016666667,17.7,24.9,155,988.16,18.5,79,20.10,0.0,1014.25,38.0
2019-08-24 13:50,50.63045,-96.980785,19.0,25.7,154,988.04,18.5,79,20.10,0.0,1014.13,38.0
2019-08-24 14:00,50.6304483333333,-96.98078,19.4,24.8,155,988.03,18.5,79,20.11,0.0,1014.12,0.0
2019-08-24 14:10,50.63045,-96.98078,19.1,25.4,154,987.96,18.6,79,20.11,0.0,1014.05,0.0
2019-08-24 14:20,50.6304516666667,-96.9807816666667,17.9,23.7,154,987.98,18.7,79,20.13,0.0,1014.06,0.0
2019-08-24 14:30,50.6304516666667,-96.98078,18.5,23.6,154,987.95,18.7,79,20.14,0.0,1014.04,0.0
2019-08-24 14:40,50.6304516666667,-96.98078,18.2,24.1,152,987.90,18.7,79,20.14,0.0,1013.98,0.0
2019-08-24 14:50,50.6304516666667,-96.98078,17.5,21.5,151,987.83,18.8,79,20.13,0.0,1013.90,0.0
2019-08-24 15:00,50.6304533333333,-96.9807783333333,16.5,21.2,151,987.78,19.0,79,20.13,0.0,1013.84,270.0
2019-08-24 15:10,50.6304533333333,-96.9807783333333,16.8,20.1,150,987.62,19.2,79,20.13,0.0,1013.67,270.0
2019-08-24 15:20,50.6304533333333,-96.98078,16.0,20.7,152,987.56,19.4,79,20.13,0.0,1013.59,270.0
2019-08-24 15:30,50.6304533333333,-96.98078,15.6,22.0,152,987.43,19.6,79,20.13,0.0,1013.44,270.0
2019-08-24 15:40,50.630445,-96.98077,15.8,20.0,158,987.42,19.7,78,20.13,0.0,1013.43,270.0
2019-08-24 15:50,50.6304466666667,-96.9807716666667,15.2,18.9,158,987.34,19.9,78,20.14,0.0,1013.34,270.0
2019-08-24 16:00,50.63045,-96.9807733333333,13.3,17.9,152,987.23,20.1,77,20.14,0.0,1013.21,90.0
2019-08-24 16:10,50.6304516666667,-96.9807766666667,12.9,16.8,150,987.05,20.3,77,20.16,0.0,1013.02,90.0
2019-08-24 16:20,50.63045,-96.9807966666667,13.7,16.1,146,986.78,20.5,76,20.17,0.0,1012.73,90.0
2019-08-24 16:30,50.63046,-96.980785,13.6,17.0,144,986.58,21.0,74,20.18,0.0,1012.49,90.0
2019-08-24 16:40,50.6304616666667,-96.9807883333333,16.1,20.5,158,986.44,21.7,69,20.19,0.0,1012.32,90.0
2019-08-24 16:50,50.6304516666667,-96.9807833333333,13.4,18.7,146,986.40,21.7,72,20.21,0.0,1012.27,90.0
2019-08-24 17:00,50.6304633333333,-96.9807833333333,14.7,17.9,145,986.31,21.4,74,20.25,0.0,1012.18,360.0
2019-08-24 17:10,50.6304583333333,-96.9807833333333,16.1,18.9,143,986.19,21.4,74,20.27,0.0,1012.05,360.0
2019-08-24 17:20,50.6304566666667,-96.980785,16.3,19.6,144,986.14,21.5,74,20.28,0.0,1011.99,360.0
2019-08-24 17:30,50.6304566666667,-96.980785,16.6,19.7,145,986.10,21.7,73,20.30,0.0,1011.93,360.0
2019-08-24 17:40,50.6304566666667,-96.9807866666667,17.1,21.7,148,986.08,21.8,73,20.32,0.0,1011.90,360.0
2019-08-24 17:50,50.63047,-96.980775,17.3,21.3,149,985.94,22.1,71,20.32,0.0,1011.73,360.0
2019-08-24 18:00,50.63045,-96.9807766666667,15.8,20.2,151,985.97,22.0,73,20.33,0.0,1011.76,90.0
2019-08-24 18:10,50.6304583333333,-96.9807833333333,15.2,19.2,152,985.93,22.0,74,20.34,0.0,1011.71,90.0
2019-08-24 18:20,50.6304483333333,-96.98075,15.1,20.0,156,985.88,22.2,73,20.37,0.0,1011.63,90.0
2019-08-24 18:30,50.6304433333333,-96.9807933333333,14.6,19.8,155,985.71,22.4,73,20.41,0.0,1011.42,90.0
2019-08-24 18:40,50.63046,-96.9807883333333,16.2,22.4,152,985.45,22.6,71,20.44,0.0,1011.13,90.0
2019-08-24 18:50,50.630455,-96.98079,16.7,20.4,152,985.28,22.7,71,20.46,0.0,1010.97,90.0
2019-08-24 19:00,50.630455,-96.9807866666667,18.4,23.6,153,985.08,22.8,70,20.48,0.0,1010.76,270.0
2019-08-24 19:10,50.630425,-96.98078,18.2,26.2,151,984.87,23.0,70,20.49,0.0,1010.53,270.0
2019-08-24 19:20,50.630445,-96.9807983333333,17.1,25.2,154,984.73,23.3,68,20.50,0.0,1010.37,270.0
2019-08-24 19:30,50.6304516666667,-96.9807866666667,20.5,31.1,158,984.52,23.9,63,20.49,0.0,1010.12,270.0
2019-08-24 19:40,50.6304533333333,-96.9807833333333,18.3,25.5,156,984.57,23.7,66,20.48,0.0,1010.16,270.0
2019-08-24 19:50,50.6304466666667,-96.980795,20.1,29.0,155,984.44,23.7,65,20.50,0.0,1010.04,270.0
2019-08-24 20:00,50.63045,-96.9807866666667,20.2,27.3,153,984.43,23.8,65,20.50,0.0,1010.03,194.5
2019-08-24 20:10,50.6304533333333,-96.980785,18.8,25.6,150,984.28,23.5,67,20.53,0.0,1009.88,194.5
2019-08-24 20:20,50.6304533333333,-96.9807833333333,18.2,24.6,153,984.13,23.6,66,20.53,0.0,1009.71,194.5
2019-08-24 20:30,50.6304516666667,-96.9807816666667,24.0,33.0,162,983.71,24.9,56,20.52,0.0,1009.21,194.5
2019-08-24 20:40,50.6304516666667,-96.98078,25.4,32.7,165,983.67,25.8,53,20.51,0.0,1009.13,194.5
2019-08-24 20:50,50.63046,-96.98077,25.0,32.0,163,983.60,26.1,52,20.53,0.0,1009.04,194.5
2019-08-24 21:00,50.6304633333333,-96.9807733333333,22.6,33.1,163,983.55,26.1,52,20.55,0.0,1008.98,360.0
2019-08-24 21:10,50.6304583333333,-96.9807716666667,25.8,32.2,166,983.30,26.1,51,20.56,0.0,1008.71,360.0
2019-08-24 21:20,50.6304566666667,-96.9807733333333,23.5,31.8,162,983.20,26.2,52,20.57,0.0,1008.58,360.0
2019-08-24 21:30,50.6304566666667,-96.980775,19.4,25.1,152,983.16,24.8,59,20.59,0.0,1008.60,360.0
2019-08-24 21:40,50.630455,-96.9807716666667,21.4,31.0,161,982.88,25.0,57,20.59,0.0,1008.31,360.0
2019-08-24 21:50,50.630455,-96.9807716666667,19.2,26.1,156,982.74,25.0,58,20.58,0.0,1008.16,360.0
2019-08-24 22:00,50.6304466666667,-96.9807866666667,25.5,34.5,166,982.32,25.7,51,20.61,0.0,1007.72,142.0
2019-08-24 22:10,50.6304533333333,-96.98078,27.5,34.1,169,982.21,26.6,48,20.63,0.0,1007.56,142.0
2019-08-24 22:20,50.6304383333333,-96.9807766666667,29.0,36.8,175,982.01,26.9,47,20.64,0.0,1007.28,142.0
2019-08-24 22:30,50.6304383333333,-96.9807716666667,25.7,34.8,173,982.07,27.0,47,20.64,0.0,1007.30,142.0
2019-08-24 22:40,50.63044,-96.9807733333333,29.9,37.4,168,981.83,26.7,47,20.66,0.0,1007.06,142.0
2019-08-24 22:50,50.6304416666667,-96.9807766666667,24.2,31.6,168,982.09,26.4,48,20.67,0.0,1007.34,142.0
2019-08-24 23:00,50.6304416666667,-96.9807783333333,26.5,33.5,167,981.99,26.2,47,20.69,0.0,1007.23,360.0
2019-08-24 23:10,50.6304433333333,-96.9807783333333,25.3,36.0,169,982.08,26.3,47,20.70,0.0,1007.32,360.0
2019-08-24 23:20,50.630455,-96.980785,27.1,34.1,168,982.00,26.3,48,20.70,0.0,1007.30,360.0
2019-08-24 23:30,50.63045,-96.98078,27.1,34.2,168,981.97,26.5,48,20.70,0.0,1007.26,360.0
2019-08-24 23:40,50.6304566666667,-96.9807783333333,26.4,34.8,169,981.99,26.5,48,20.71,0.0,1007.27,360.0
